Miscellaneous Local Product
Issued by NWS Hastings, NE

Home | Current Version | Previous Version | Text Only | Print | Product List | Glossary Off
Versions: 1 2 3 4 5 6 7 8 9 10 11 12 13 14 15 16 17 18 19 20 21 22 23 24 25 26 27 28 29 30 31 32 33 34 35 36 37 38 39 40 41 42 43 44 45 46 47 48 49 50

000
AXUS43 KGID 020602
MISGRI

GID CWA HOURLY WEATHER ROUNDUP
NATIONAL WEATHER SERVICE HASTINGS NE
100 AM CDT THU JUL 02 2015

NOTE: "FAIR" INDICATES FEW OR NO CLOUDS BELOW 12,000 FEET WITH NO
SIGNIFICANT WEATHER AND/OR OBSTRUCTIONS TO VISIBILITY.

...SOUTH CENTRAL NEBRASKA...

CITY           SKY/WX    TMP DP  RH WIND       PRES   REMARKS
GRAND ISLAND   PTCLDY    70  66  87 E6        29.93F
HASTINGS       PTCLDY    72  69  90 E7        29.92F
KEARNEY        PTCLDY    70  64  83 NE5       29.94S

...NEBRASKA PANHANDLE...

CITY           SKY/WX    TMP DP  RH WIND       PRES   REMARKS
CHADRON        CLOUDY    70  63  78 NE24G33   30.03R
ALLIANCE       CLOUDY    70  60  70 E8        30.02F
SCOTTSBLUFF    MOCLDY    67  59  75 SE8       30.01F
SIDNEY         CLOUDY    64  60  87 S8        30.08F

...WESTERN AND NORTH CENTRAL NEBRASKA...

CITY           SKY/WX    TMP DP  RH WIND       PRES   REMARKS
VALENTINE      PTCLDY    66  64  93 E5        29.95F
BROKEN BOW     PTCLDY    66  63  90 N3        29.95F
IMPERIAL       MOCLDY    76  59  55 NW15      30.03S
NORTH PLATTE   CLOUDY    72  61  68 E6        29.96F
MCCOOK         MOCLDY    74  65  73 SW8       29.96S

...EASTERN NEBRASKA...

CITY           SKY/WX    TMP DP  RH WIND       PRES   REMARKS
NORFOLK        CLOUDY    68  65  90 E7        29.95S
SO SIOUX CITY  PTCLDY    64  56  75 E8        29.96S
TEKAMAH        CLEAR     68  60  75 E6        29.94R
COLUMBUS       CLEAR     66  61  82 E7        29.93S
OMAHA EPPLEY   CLOUDY    70  62  76 VRB7      29.93R
OFFUTT AFB     MOCLDY    69  64  85 NE9       29.92R
LINCOLN        PTCLDY    71  66  84 E10       29.92R
FALLS CITY     CLOUDY    72  68  87 E9        29.88R

...NORTHERN KANSAS...

CITY           SKY/WX    TMP DP  RH WIND       PRES   REMARKS
GOODLAND       CLOUDY    68  61  78 W6        30.04F
HILL CITY      MOCLDY    75  62  64 CALM      29.92F
NORTON         CLEAR     70  61  73 CALM      29.92F
PHILLIPSBURG   CLEAR     79  68  69 N3        29.91S
SMITH CENTER   CLEAR     73  68  83 E7        29.90S
HAYS           MOCLDY    75  63  64 NE7       29.90S
RUSSELL        MOCLDY    75  68  78 NE8       29.87F
CONCORDIA      MOCLDY    74  70  87 NE3       29.87F
SALINA         PTCLDY    80  71  74 NE8       29.84F
TOPEKA         CLOUDY    78  74  87 NE9       29.85R



USA.gov is the U.S. government's official web portal to all federal, state and local government web resources and services.